Albert Lea, MN

10:24 PM CDT on April 21, 2018 (GMT -0500)
Albert Lea Municipal

Weather History for KAEL - March, 2014

Change the Weather History Date:

Tuesday, March 25, 2014

  Actual Average Record
Temperature  
Mean Temperature 18 °F -  
Max Temperature 24 °F 43 °F 73 °F (2007)
Min Temperature 12 °F 27 °F 10 °F (2001)
Degree Days  
Heating Degree Days 47    
Moisture  
Dew Point 8 °F    
Average Humidity 65    
Maximum Humidity 92    
Minimum Humidity 53    
Precipitation  
Precipitation 0.00 in - - ()
Sea Level Pressure  
Sea Level Pressure 30.20 in    
Wind  
Wind Speed 10 mph (NW)    
Max Wind Speed 20 mph    
Max Gust Speed 29 mph    
Visibility 10 miles    
Events Snow    
Averages and records for this station are not official NWS values.
T = Trace of Precipitation, MM = Missing Value Source: NWS Daily Summary

Daily Weather History Graph

Daily Weather History Graph

Search for Another Location

Airport or City:

Astronomy

Mar. 25, 2014 Rise Set
Actual Time 7:07 AM CDT 7:31 PM CDT
Civil Twilight 6:38 AM CDT 8:00 PM CDT
Nautical Twilight 6:05 AM CDT 8:34 PM CDT
Astronomical Twilight 5:30 AM CDT 9:09 PM CDT
Moon 3:39 AM CDT (3/25) 1:54 PM CDT (3/25)
Length of Visible Light 13h 21m
Length of Day
12h 24m
Waning Crescent, 32% of the Moon is Illuminated
Mar 25
Waning Crescent
Mar 30
New
Apr 7
First Quarter
Apr 15
Full
Apr 22
Last Quarter

Hourly Weather History & Observations

Time (CDT) Temp. Windchill Dew Point Humidity Pressure Visibility Wind Dir Wind Speed Gust Speed Precip Events Conditions
12:10 AM 21.2 °F 14.9 °F 15.8 °F 80% 30.11 in 10.0 mi West 4.6 mph - N/A   Clear
12:30 AM 23.0 °F 15.8 °F 15.8 °F 74% 30.11 in 10.0 mi WNW 5.8 mph - N/A   Clear
12:50 AM 24.8 °F 13.4 °F 15.8 °F 69% 30.11 in 10.0 mi NW 12.7 mph 19.6 mph N/A   Scattered Clouds
1:10 AM 24.8 °F 16.1 °F 15.8 °F 69% 30.11 in 10.0 mi NW 8.1 mph 19.6 mph N/A   Mostly Cloudy
1:30 AM 23.0 °F 13.1 °F 14.0 °F 68% 30.11 in 10.0 mi WNW 9.2 mph 16.1 mph N/A   Clear
1:50 AM 23.0 °F 12.4 °F 14.0 °F 68% 30.11 in 10.0 mi WNW 10.4 mph 20.7 mph N/A   Clear
2:10 AM 21.2 °F 8.3 °F 12.2 °F 68% 30.11 in 10.0 mi WNW 13.8 mph 25.3 mph N/A   Scattered Clouds
2:30 AM 21.2 °F 8.3 °F 12.2 °F 68% 30.11 in 10.0 mi NW 13.8 mph 24.2 mph N/A   Scattered Clouds
2:50 AM 21.2 °F 8.3 °F 15.8 °F 80% 30.12 in 10.0 mi NNW 13.8 mph 24.2 mph N/A Snow Light Snow
3:10 AM 21.2 °F 8.3 °F 14.0 °F 74% 30.12 in 10.0 mi NW 13.8 mph 23.0 mph N/A   Mostly Cloudy
3:30 AM 19.4 °F 5.5 °F 12.2 °F 74% 30.12 in 10.0 mi NW 15.0 mph 21.9 mph N/A   Mostly Cloudy
3:50 AM 19.4 °F 4.5 °F 8.6 °F 63% 30.13 in 10.0 mi NNW 17.3 mph 28.8 mph N/A   Mostly Cloudy
4:09 AM 17.6 °F 4.3 °F 8.6 °F 68% 30.14 in 10.0 mi NNW 12.7 mph 25.3 mph N/A   Scattered Clouds
4:30 AM 17.6 °F 1.7 °F 8.6 °F 68% 30.14 in 10.0 mi NNW 18.4 mph 26.5 mph N/A   Clear
4:50 AM 15.8 °F 0.9 °F 6.8 °F 68% 30.16 in 10.0 mi NNW 15.0 mph 20.7 mph N/A   Clear
5:10 AM 15.8 °F -1.1 °F 3.2 °F 58% 30.17 in 10.0 mi North 19.6 mph 28.8 mph N/A   Clear
5:30 AM 15.8 °F 0.9 °F 3.2 °F 58% 30.17 in 10.0 mi NNW 15.0 mph 28.8 mph N/A   Scattered Clouds
5:50 AM 14.0 °F -0.8 °F 3.2 °F 62% 30.18 in 10.0 mi NNW 13.8 mph 21.9 mph N/A   Scattered Clouds
6:10 AM 14.0 °F -1.4 °F 3.2 °F 62% 30.20 in 10.0 mi NNW 15.0 mph 23.0 mph N/A   Clear
6:30 AM 12.2 °F -1.0 °F 3.2 °F 67% 30.21 in 10.0 mi NW 10.4 mph 19.6 mph N/A   Scattered Clouds
6:50 AM 12.2 °F -3.1 °F -0.4 °F 57% 30.21 in 10.0 mi NNW 13.8 mph 26.5 mph N/A   Clear
7:09 AM 12.2 °F -5.8 °F -0.4 °F 57% 30.22 in 10.0 mi NNW 19.6 mph 25.3 mph N/A   Clear
7:30 AM 12.2 °F -4.8 °F 1.4 °F 62% 30.23 in 10.0 mi NNW 17.3 mph 25.3 mph N/A   Clear
7:50 AM 12.2 °F -1.0 °F 1.4 °F 62% 30.24 in 10.0 mi NW 10.4 mph 21.9 mph N/A   Clear
8:10 AM 12.2 °F -5.8 °F 1.4 °F 62% 30.23 in 10.0 mi NW 19.6 mph 25.3 mph N/A   Clear
8:30 AM 12.2 °F -4.3 °F -0.4 °F 57% 30.24 in 10.0 mi NNW 16.1 mph 26.5 mph N/A   Clear
8:50 AM 12.2 °F -5.3 °F -0.4 °F 57% 30.24 in 10.0 mi NNW 18.4 mph 26.5 mph N/A   Clear
9:10 AM 14.0 °F -3.0 °F -0.4 °F 53% 30.24 in 10.0 mi NNW 18.4 mph 25.3 mph N/A   Clear
9:30 AM 14.0 °F -2.0 °F -0.4 °F 53% 30.25 in 10.0 mi NNW 16.1 mph 24.2 mph N/A   Clear
9:50 AM 15.8 °F 2.1 °F 3.2 °F 58% 30.26 in 10.0 mi NNW 12.7 mph 21.9 mph N/A   Clear
10:10 AM 15.8 °F 0.3 °F 1.4 °F 53% 30.27 in 10.0 mi NNW 16.1 mph 23.0 mph N/A   Clear
10:29 AM 15.8 °F 3.4 °F 3.2 °F 58% 30.27 in 10.0 mi NW 10.4 mph 18.4 mph N/A   Clear
10:50 AM 17.6 °F 4.3 °F 3.2 °F 53% 30.28 in 10.0 mi NNW 12.7 mph 21.9 mph N/A   Clear
11:10 AM 15.8 °F 2.1 °F 3.2 °F 58% 30.28 in 10.0 mi NW 12.7 mph 19.6 mph N/A   Scattered Clouds
11:16 AM 17.6 °F 5.7 °F 5.0 °F 58% 30.28 in 10.0 mi NW 10.4 mph 23.0 mph N/A   Scattered Clouds
11:41 AM 17.6 °F 3.7 °F 5.0 °F 58% 30.28 in 10.0 mi NW 13.8 mph 21.9 mph N/A   Scattered Clouds
12:01 PM 17.6 °F 7.3 °F 6.8 °F 63% 30.27 in 10.0 mi NW 8.1 mph 17.3 mph N/A   Mostly Cloudy
12:21 PM 17.6 °F 4.3 °F 6.8 °F 63% 30.27 in 10.0 mi NW 12.7 mph 18.4 mph N/A   Overcast
12:41 PM 19.4 °F 6.0 °F 6.8 °F 58% 30.27 in 10.0 mi WNW 13.8 mph 19.6 mph N/A   Mostly Cloudy
12:45 PM 19.4 °F 6.6 °F 5.0 °F 54% 30.27 in 10.0 mi WNW 12.7 mph 19.6 mph N/A   Mostly Cloudy
1:02 PM 19.4 °F 7.2 °F 6.8 °F 58% 30.26 in 10.0 mi NNW 11.5 mph 16.1 mph N/A   Mostly Cloudy
1:10 PM 19.4 °F 7.9 °F 6.8 °F 58% 30.26 in 10.0 mi NW 10.4 mph 19.6 mph N/A   Mostly Cloudy
1:30 PM 19.4 °F 7.9 °F 6.8 °F 58% 30.26 in 10.0 mi NW 10.4 mph - N/A   Mostly Cloudy
1:50 PM 19.4 °F 6.6 °F 6.8 °F 58% 30.25 in 10.0 mi NW 12.7 mph 18.4 mph N/A   Overcast
2:10 PM 19.4 °F 7.2 °F 6.8 °F 58% 30.25 in 10.0 mi WNW 11.5 mph 16.1 mph N/A   Mostly Cloudy
2:30 PM 19.4 °F 10.4 °F 8.6 °F 63% 30.24 in 10.0 mi WNW 6.9 mph 17.3 mph N/A   Mostly Cloudy
2:49 PM 21.2 °F 10.1 °F 8.6 °F 58% 30.23 in 10.0 mi WNW 10.4 mph - N/A Snow Light Snow
3:10 PM 21.2 °F 10.9 °F 8.6 °F 58% 30.23 in 10.0 mi West 9.2 mph - N/A   Overcast
3:30 PM 19.4 °F 8.6 °F 6.8 °F 58% 30.23 in 10.0 mi WNW 9.2 mph 18.4 mph N/A   Overcast
3:50 PM 21.2 °F 8.9 °F 8.6 °F 58% 30.23 in 7.0 mi West 12.7 mph 18.4 mph N/A   Overcast
4:09 PM 21.2 °F 10.9 °F 6.8 °F 54% 30.23 in 10.0 mi WNW 9.2 mph 17.3 mph N/A   Overcast
4:30 PM 21.2 °F 12.6 °F 8.6 °F 58% 30.22 in 10.0 mi NW 6.9 mph - N/A   Overcast
4:49 PM 21.2 °F 10.9 °F 8.6 °F 58% 30.21 in 10.0 mi WNW 9.2 mph - N/A   Overcast
5:10 PM 21.2 °F 11.7 °F 8.6 °F 58% 30.21 in 10.0 mi WNW 8.1 mph - N/A   Overcast
5:30 PM 21.2 °F 11.7 °F 8.6 °F 58% 30.20 in 10.0 mi West 8.1 mph 17.3 mph N/A   Overcast
5:50 PM 21.2 °F 10.9 °F 8.6 °F 58% 30.20 in 10.0 mi West 9.2 mph 16.1 mph N/A   Mostly Cloudy
6:10 PM 21.2 °F 14.9 °F 8.6 °F 58% 30.19 in 10.0 mi WNW 4.6 mph - N/A   Mostly Cloudy
6:30 PM 21.2 °F 14.9 °F 10.4 °F 63% 30.19 in 10.0 mi West 4.6 mph - N/A   Scattered Clouds
6:50 PM 21.2 °F 12.6 °F 8.6 °F 58% 30.18 in 10.0 mi WNW 6.9 mph - N/A   Scattered Clouds
7:10 PM 21.2 °F - 10.4 °F 63% 30.18 in 10.0 mi Calm Calm - N/A   Clear
7:30 PM 21.2 °F 14.9 °F 10.4 °F 63% 30.18 in 10.0 mi NNW 4.6 mph - N/A   Clear
7:50 PM 19.4 °F - 10.4 °F 68% 30.18 in 10.0 mi Calm Calm - N/A   Clear
8:10 PM 19.4 °F - 10.4 °F 68% 30.18 in 10.0 mi Calm Calm - N/A   Clear
8:30 PM 17.6 °F - 12.2 °F 79% 30.17 in 10.0 mi Calm Calm - N/A   Clear
8:50 PM 17.6 °F - 12.2 °F 79% 30.17 in 10.0 mi Calm Calm - N/A   Clear
9:10 PM 17.6 °F - 10.4 °F 73% 30.17 in 10.0 mi Calm Calm - N/A   Clear
9:30 PM 17.6 °F - 10.4 °F 73% 30.18 in 10.0 mi Calm Calm - N/A   Clear
9:50 PM 15.8 °F - 12.2 °F 86% 30.17 in 10.0 mi Calm Calm - N/A   Clear
10:10 PM 15.8 °F - 12.2 °F 86% 30.17 in 10.0 mi Calm Calm - N/A   Clear
10:30 PM 14.0 °F - 10.4 °F 86% 30.17 in 10.0 mi Calm Calm - N/A   Clear
10:50 PM 14.0 °F 8.2 °F 10.4 °F 86% 30.17 in 10.0 mi SSE 3.5 mph - N/A   Clear
11:10 PM 14.0 °F - 10.4 °F 86% 30.17 in 10.0 mi Calm Calm - N/A   Clear
11:30 PM 12.2 °F 6.1 °F 10.4 °F 92% 30.17 in 10.0 mi South 3.5 mph - N/A   Clear
11:50 PM 12.2 °F 6.1 °F 10.4 °F 92% 30.16 in 10.0 mi SSE 3.5 mph - N/A   Clear